Location: Carri�res
(48.9069°N, 2.1792°E)
Time: 18:53:32
(UTC+00:00)

deb Kosmos- 1898 - Pass Details

Date: 30 July 2021
Orbit: 731 x 754 km, 74.0° (Epoch: 17 September)

Event Time Altitude Azimuth Distance (km) Brightness Sun altitude
Exits shadow 03:41:34 - 242° (WSW) 2,478 ? -6.3°
Reaches altitude 10° 03:42:14 10° 246° (WSW) 2,255 ? -6.3°
Maximum altitude 03:46:41 29° 306° (NW) 1,346 ? -5.7°
Drops below altitude 10° 03:51:11 10° 7° (N) 2,280 ? -5.1°
Sets 03:53:51 0° 18° (NNE) 3,212 ? -4.7°
